Location: Caltech
(34.1382°N, 118.1253°W)
Time: 17:38:30
(UTC-08:00)

OAO 2 Rocket - Visible Passes

Search period start: 24 November 2014 00:00
Search period end: 04 December 2014 00:00
Orbit: 677 x 749 km, 35.0° (Epoch: 24 November)

Date Brightness Start Highest point End Pass type
(mag) Time Alt. Az. Time Alt. Az. Time Alt. Az.
24 Nov 3.4 17:10:33 10° W 17:15:47 86° S 17:20:53 10° ESE visible
24 Nov 4.4 18:55:42 10° W 19:00:24 37° SSW 19:01:02 36° S visible
25 Nov 4.0 17:58:18 10° W 18:03:19 51° SSW 18:07:32 14° SE visible
25 Nov 5.9 19:44:36 10° WSW 19:46:34 15° SW 19:46:34 15° SW visible
26 Nov 5.3 18:46:32 10° W 18:50:35 23° SSW 18:53:16 16° S visible
27 Nov 4.9 17:48:54 10° W 17:53:33 33° SSW 17:58:07 10° SE visible
28 Nov 6.0 18:38:12 10° WSW 18:40:39 13° SW 18:43:06 10° S visible
29 Nov 5.8 17:39:51 10° W 17:43:41 21° SSW 17:47:28 10° SSE visible
01 Dec 6.4 17:32:00 10° WSW 17:33:44 12° SW 17:35:28 10° SSW visible
